Location: Madrid
(40.4167°N, 3.7036°W)
Time: 11:03:20
(UTC+00:00)

ISS - Pass Details

Date: 10 March 2026
Orbit: 416 x 427 km, 51.6° (Epoch: 5 March)

Event Time Altitude Azimuth Distance (km) Brightness Sun altitude
Rises 19:25:10 0° 209° (SSW) 2,367 0.4 -13.9°
Reaches altitude 10° 19:27:24 10° 199° (SSW) 1,505 -0.8 -14.4°
Maximum altitude 19:30:26 31° 135° (SE) 767 -2.9 -14.9°
Enters shadow 19:30:48 30° 122° (ESE) 782 -2.9 -15.0°
